Regional Weather Roundup
Issued by NWS

Home | Current Version | Previous Version | Graphics & Text | Print | Product List | Glossary On
Versions: 1 2 3 4 5 6 7 8 9 10 11 12 13 14 15 16 17 18 19 20 21 22 23 24 25 26 27 28 29 30 31 32 33 34 35 36 37 38 39 40 41 42 43 44 45 46 47 48 49 50
974
ASUS43 KTOP 211159
RWRKS

WEATHER ROUNDUP FOR KANSAS
NATIONAL WEATHER SERVICE GOODLAND KS
600 AM CST SUN JAN 21 2018

NOTE:  "FAIR" INDICATES FEW OR NO CLOUDS BELOW 12,000 FEET WITH NO
SIGNIFICANT WEATHER AND/OR OBSTRUCTIONS TO VISIBILITY.

KSZ001>006-013>018-027>032-041>047-211300-
NORTHWEST KANSAS

CITY           SKY/WX    TMP DP  RH WIND       PRES   REMARKS
GOODLAND       CLOUDY    29  27  92 N14       29.74F WCI  18
6HR MIN TEMP:  29; 6HR MAX TEMP:  31;

HAYS           LGT RAIN  37  36  96 N10       29.70S VSB 1/4 WCI  30
HILL CITY      CLOUDY    35  35 100 N17       29.71F FOG     WCI  25
6HR MIN TEMP:  35; 6HR MAX TEMP:  37;

RUSSELL        FOG       37  37 100 N8        29.67S VSB 1/4
6HR MIN TEMP:  33; 6HR MAX TEMP:  37;

$$

KSZ061>065-074>080-084>089-211300-
SOUTHWEST KANSAS

CITY           SKY/WX    TMP DP  RH WIND       PRES   REMARKS
DODGE CITY     FOG       33  32  96 N14       29.67F VSB 1/2 WCI  23
6HR MIN TEMP:  26; 6HR MAX TEMP:  33;

GARDEN CITY    FOG       31  31 100 N15       29.69S VSB 3/4 WCI  20
6HR MIN TEMP:  25; 6HR MAX TEMP:  32;

GREAT BEND     MIX PCPN  29  28  96 N6        29.68R VSB 1/4
LIBERAL        CLOUDY    31  29  92 N17       29.70S WCI  19
$$

KSZ066>073-081>083-090>101-211300-
SOUTHEAST KANSAS

CITY           SKY/WX    TMP DP  RH WIND       PRES   REMARKS
CHANUTE        CLOUDY    54  51  90 S21       29.78S
6HR MIN TEMP:  54; 6HR MAX TEMP:  57;

COFFEYVILLE    CLEAR     55  52  89 S15       29.79S
6HR MIN TEMP:  55; 6HR MAX TEMP:  59;

HUTCHINSON     CLOUDY    41  41 100 S7        29.66S FOG
6HR MIN TEMP:  36; 6HR MAX TEMP:  45;

MEDICINE LODGE   N/A     63  34  33 S10       29.67R
NEWTON         CLOUDY    48  46  93 S18       29.68S
PARSONS        PTCLDY    54  53  97 S12       29.80S
6HR MIN TEMP:  54; 6HR MAX TEMP:  58;

WICHITA INTL   CLOUDY    50  48  93 S14       29.69R
6HR MIN TEMP:  44; 6HR MAX TEMP:  51;

WICHITA JABRA  CLEAR     51  50  96 S16G25    29.69S
6HR MIN TEMP:  40; 6HR MAX TEMP:  51;

WICHITA MCCONL PTCLDY    51  49  92 S15       29.69S
WINFIELD       CLOUDY    52  51  97 S21       29.73R
6HR MIN TEMP:  50; 6HR MAX TEMP:  53;

$$

KSZ007>012-019>026-033>040-048>060-102>105-211300-
NORTHEAST KANSAS

CITY           SKY/WX    TMP DP  RH WIND       PRES   REMARKS
CONCORDIA      FOG       37  37 100 NE7       29.69F VSB 1/4
6HR MIN TEMP:  32; 6HR MAX TEMP:  37;

EMPORIA        PTCLDY    52  49  89 S17G24    29.71S
6HR MIN TEMP:  39; 6HR MAX TEMP:  53;

LAWRENCE       CLOUDY    49  49 100 E8        29.76F
6HR MIN TEMP:  35; 6HR MAX TEMP:  49;

MANHATTAN      CLOUDY    45  44  97 NE3       29.71S FOG
6HR MIN TEMP:  36; 6HR MAX TEMP:  45;

OLATHE IND     CLOUDY    49  48  97 E7        29.78F
6HR MIN TEMP:  43; 6HR MAX TEMP:  51;

OLATHE EXE     CLOUDY    48  48 100 SE8       29.78F
6HR MIN TEMP:  39; 6HR MAX TEMP:  50;

SALINA         FOG       34  34 100 CALM      29.68S VSB 1/4
6HR MIN TEMP:  30; 6HR MAX TEMP:  35;

TOPEKA BILLARD CLOUDY    46  46 100 E9        29.74F FOG
6HR MIN TEMP:  31; 6HR MAX TEMP:  48;

TOPEKA FORBES  CLOUDY    49  48  97 SE9       29.73F FOG
6HR MIN TEMP:  38; 6HR MAX TEMP:  49;

$$




USA.gov is the U.S. government's official web portal to all federal, state and local government web resources and services.